User: anonymous   Login
Location: Unspecified
(0.0000°N, 0.0000°E)
Time: 01:00:45
(UTC+00:00)
Language:

STARLINK-2452 - Orbit

View from above orbital plane
View from above orbital plane
View from above satellite
View from above satellite

Ground track
Ground track

The orbit is defined by the following mean orbital elements,

1 48115U          26145.29825221 +.00000000 +00000-0 +23732-4 0 00002
2 48115  53.1589 158.6031 0001357  86.9489 273.1667 15.31698366    06
Epoch (UTC): 25 May 2026 07:09:28
Eccentricity: 0.0001357
inclination: 53.1589°
perigee height: 470 km
apogee height: 472 km
right ascension of ascending node: 158.6031°
argument of perigee: 86.9489°
revolutions per day: 15.31698366
mean anomaly at epoch: 273.1667°

The dashed part of the orbit path shows where the satellite is in the earth's shadow,  

DLR